Tracking 28790 objects as of 19-Apr-2024
HD Live streaming from Space Station
objects crossing your sky now

SATCOM 3R

Track SATCOM 3R now!
SATCOM 3R is classified as:


NORAD ID: 12967
Int'l Code: 1981-114A
Perigee: 35,829.9 km
Apogee: 35,845.9 km
Inclination: 13.0 °
Period: 1,438.4 minutes
Semi major axis: 42208 km
RCS: 2.5119 m2 (large)
Launch date: November 20, 1981
Source: United States (US)
Launch site: AIR FORCE EASTERN TEST RANGE (AFETR)
Your satellite tracking list
Your tracking list is empty




NASA's NSSDC Master Catalog

Two Line Element Set (TLE):
1 12967U 81114A   24109.02217841 -.00000305  00000-0  00000-0 0  9990
2 12967  13.0146 337.5183 0001901 329.3811 212.6700  1.00114529120150
Source of the keplerian elements: AFSPC